Latest Coastal Weather Observations for Troughton Island

IDW60701

Issued at 12:53 am WST Sunday 20 August 2017 (issued every 10 minutes, with the page automatically refreshed every 10 minutes)

About coastal observations | Map of coastal stations | Coastal observations for WA | Marine services | Other Formats
Station Details ID: 001007 Name: TROUGHTON ISLAND Lat: -13.75 Lon: 126.15 Height: 6.0 m
Data from the previous 72 hours. | See also: Recent months at Troughton Island
Date/Time
WST
Temp
°C
Wind Pressure Rain since
9am
mm
Weather Cloud Vis
km
Sea
Height
m
Swell
Dir  Spd
kts
Gust
kts
hPa Trend Height
m
Period
s
Dir
20/12:30am 26.0 WSW 10 12 1013.4 - 0.0 - - - - - - -
20/12:00am 26.0 WSW 11 12 1013.6 - 0.0 - - - - - - -
 
Date/Time
WST
Temp
°C
Wind Pressure Rain since
9am
mm
Weather Cloud Vis
km
Sea
Height
m
Swell
Dir  Spd
kts
Gust
kts
hPa Trend Height
m
Period
s
Dir
19/11:30pm 26.0 WSW 10 11 1013.9 - 0.0 - - - - - - -
19/11:00pm 26.2 WSW 9 10 1014.1 - 0.0 - - - - - - -
19/10:30pm 26.1 WSW 7 8 1014.1 - 0.0 - - - - - - -
19/10:00pm 26.1 WSW 7 8 1014.2 - 0.0 - - - - - - -
19/09:30pm 26.1 WSW 6 7 1014.5 - 0.0 - - - - - - -
19/09:00pm 26.2 WSW 6 7 1014.6 - 0.0 - - - - - - -
19/08:30pm 26.3 WSW 6 7 1014.4 - 0.0 - - - - - - -
19/08:00pm 26.2 W 5 6 1014.5 - 0.0 - - - - - - -
19/07:30pm 26.3 WNW 6 7 1014.1 - 0.0 - - - - - - -
19/07:00pm 26.4 WNW 7 9 1013.8 - 0.0 - - - - - - -
19/06:30pm 26.4 NW 8 10 1013.4 - 0.0 - - - - - - -
19/06:00pm 26.8 NW 10 11 1013.0 - 0.0 - - - - - - -
19/05:30pm 26.9 NW 9 11 1012.6 - 0.0 - - - - - - -
19/05:00pm 27.8 NW 9 10 1012.3 - 0.0 - - - - - - -
19/04:30pm 28.5 NW 9 11 1011.9 - 0.0 - - - - - - -
19/04:00pm 28.7 NW 10 11 1011.7 - 0.0 - - - - - - -
19/03:30pm 29.2 NW 9 11 1011.5 - 0.0 - - - - - - -
19/03:00pm 29.0 NW 10 11 1011.9 - 0.0 - - - - - - -
19/02:30pm 29.7 NW 9 11 1012.3 - 0.0 - - - - - - -
19/02:00pm 29.3 NW 8 10 1012.8 - 0.0 - - - - - - -
19/01:30pm 29.5 NNW 8 11 1013.1 - 0.0 - - - - - - -
19/01:00pm 29.6 NW 8 10 1013.5 - 0.0 - - - - - - -
19/12:30pm 29.0 N 7 9 1013.9 - 0.0 - - - - - - -
19/12:00pm 28.9 NNE 7 9 1014.3 - 0.0 - - - - - - -
19/11:30am 28.6 NNE 7 9 1014.7 - 0.0 - - - - - - -
19/11:00am 28.5 NNE 6 8 1015.0 - 0.0 - - - - - - -
19/10:30am 29.0 NNW 5 7 1015.3 - 0.0 - - - - - - -
19/10:00am 28.4 NW 4 6 1015.7 - 0.0 - - - - - - -
19/09:30am 28.2 W 4 5 1016.0 - 0.0 - - - - - - -
19/09:00am 28.2 WSW 5 6 1016.0 - 0.0 - - - - - - -
19/08:30am 27.8 WSW 3 4 1016.1 - 0.0 - - - - - - -
19/08:00am 27.1 NNE 1 3 1015.9 - 0.0 - - - - - - -
19/07:30am 27.3 SSW 4 5 1015.6 - 0.0 - - - - - - -
19/07:00am 26.8 SSW 5 6 1015.4 - 0.0 - - - - - - -
19/06:30am 26.4 SSW 4 5 1015.1 - 0.0 - - - - - - -
19/06:00am 25.8 SW 6 7 1014.8 - 0.0 - - - - - - -
19/05:30am 25.9 SW 7 8 1014.4 - 0.0 - - - - - - -
19/05:00am 25.8 SW 8 9 1013.9 - 0.0 - - - - - - -
19/04:30am 25.9 SW 8 10 1013.5 - 0.0 - - - - - - -
19/04:00am 26.1 SW 9 11 1013.2 - 0.0 - - - - - - -
19/03:30am 26.1 SW 9 10 1013.0 - 0.0 - - - - - - -
19/03:00am 26.1 SW 8 9 1013.0 - 0.0 - - - - - - -
19/02:30am 26.2 WSW 9 11 1013.1 - 0.0 - - - - - - -
19/02:00am 26.1 WSW 10 12 1013.1 - 0.0 - - - - - - -
19/01:30am 26.2 WSW 10 12 1013.3 - 0.0 - - - - - - -
19/01:00am 26.1 W 9 11 1013.6 - 0.0 - - - - - - -
19/12:30am 26.1 WSW 9 11 1013.9 - 0.0 - - - - - - -
19/12:00am 26.0 WSW 9 10 1014.2 - 0.0 - - - - - - -
 
Date/Time
WST
Temp
°C
Wind Pressure Rain since
9am
mm
Weather Cloud Vis
km
Sea
Height
m
Swell
Dir  Spd
kts
Gust
kts
hPa Trend Height
m
Period
s
Dir
18/11:30pm 26.1 WSW 8 9 1014.3 - 0.0 - - - - - - -
18/11:00pm 26.0 W 8 9 1014.4 - 0.0 - - - - - - -
18/10:30pm 25.7 W 6 7 1014.5 - 0.0 - - - - - - -
18/10:00pm 25.7 W 5 7 1014.6 - 0.0 - - - - - - -
18/09:30pm 25.6 WNW 5 5 1014.6 - 0.0 - - - - - - -
18/09:00pm 25.8 WNW 5 6 1014.7 - 0.0 - - - - - - -
18/08:30pm 25.8 NW 5 6 1014.4 - 0.0 - - - - - - -
18/08:00pm 26.0 NW 6 8 1014.0 - 0.0 - - - - - - -
18/07:30pm 26.1 NNW 6 7 1013.7 - 0.0 - - - - - - -
18/07:00pm 26.4 NNW 6 7 1013.2 - 0.0 - - - - - - -
18/06:30pm 26.6 NNW 8 9 1012.6 - 0.0 - - - - - - -
18/06:00pm 26.8 NNW 8 9 1012.3 - 0.0 - - - - - - -
18/05:30pm 27.2 NNW 9 11 1012.0 - 0.0 - - - - - - -
18/05:00pm 28.0 NNW 9 12 1011.8 - 0.0 - - - - - - -
18/04:30pm 28.5 NNW 10 13 1011.7 - 0.0 - - - - - - -
18/04:00pm 28.6 NNW 10 13 1011.4 - 0.0 - - - - - - -
18/03:30pm 28.8 NNW 9 12 1011.4 - 0.0 - - - - - - -
18/03:00pm 29.3 NNW 10 11 1011.5 - 0.0 - - - - - - -
18/02:30pm 29.4 NNW 9 12 1011.7 - 0.0 - - - - - - -
18/02:00pm 29.4 NNW 9 12 1011.8 - 0.0 - - - - - - -
18/01:30pm 28.0 N 9 11 1012.3 - 0.0 - - - - - - -
18/01:00pm 28.1 N 9 12 1012.5 - 0.0 - - - - - - -
18/12:30pm 29.5 N 8 10 1012.7 - 0.0 - - - - - - -
18/12:00pm 29.0 N 8 11 1013.0 - 0.0 - - - - - - -
18/11:30am 28.4 N 8 11 1013.3 - 0.0 - - - - - - -
18/11:00am 28.9 N 7 9 1013.6 - 0.0 - - - - - - -
18/10:30am 28.7 WNW 5 7 1013.7 - 0.0 - - - - - - -
18/10:00am 28.6 W 5 6 1013.8 - 0.0 - - - - - - -
18/09:30am 28.6 W 6 7 1013.9 - 0.0 - - - - - - -
18/09:00am 28.2 W 6 7 1013.9 - 0.0 - - - - - - -
18/08:30am 28.3 W 7 9 1013.6 - 0.0 - - - - - - -
18/08:00am 27.8 W 7 8 1013.4 - 0.0 - - - - - - -
18/07:30am 27.5 W 8 9 1013.1 - 0.0 - - - - - - -
18/07:00am 26.7 W 8 9 1012.9 - 0.0 - - - - - - -
18/06:30am 25.9 W 7 9 1012.6 - 0.0 - - - - - - -
18/06:00am 25.4 W 7 8 1012.4 - 0.0 - - - - - - -
18/05:30am 25.4 W 7 9 1011.9 - 0.0 - - - - - - -
18/05:00am 25.2 WNW 7 8 1011.6 - 0.0 - - - - - - -
18/04:30am 25.2 WNW 7 8 1011.3 - 0.0 - - - - - - -
18/04:00am 25.2 WNW 7 8 1011.0 - 0.0 - - - - - - -
18/03:30am 25.3 WNW 7 8 1010.8 - 0.0 - - - - - - -
18/03:00am 25.3 WNW 8 9 1010.8 - 0.0 - - - - - - -
18/02:30am 25.2 WNW 7 8 1010.7 - 0.0 - - - - - - -
18/02:00am 25.0 WNW 7 7 1011.0 - 0.0 - - - - - - -
18/01:30am 24.7 NW 6 7 1011.2 - 0.0 - - - - - - -
18/01:00am 24.5 NNW 6 6 1011.5 - 0.0 - - - - - - -
18/12:30am 25.0 NNW 5 5 1011.8 - 0.0 - - - - - - -
18/12:00am 25.2 NNW 5 6 1012.2 - 0.0 - - - - - - -
 
Date/Time
WST
Temp
°C
Wind Pressure Rain since
9am
mm
Weather Cloud Vis
km
Sea
Height
m
Swell
Dir  Spd
kts
Gust
kts
hPa Trend Height
m
Period
s
Dir
17/11:30pm 25.7 N 5 5 1012.5 - 0.0 - - - - - - -
17/11:00pm 25.8 N 4 5 1012.5 - 0.0 - - - - - - -
17/10:30pm 25.9 N 4 5 1012.4 - 0.0 - - - - - - -
17/10:00pm 25.4 WNW 4 5 1012.3 - 0.0 - - - - - - -
17/09:30pm 25.8 W 4 5 1012.3 - 0.0 - - - - - - -
17/09:00pm 26.0 W 5 5 1012.3 - 0.0 - - - - - - -
17/08:30pm 26.2 W 6 6 1012.2 - 0.0 - - - - - - -
17/08:00pm 26.3 W 6 7 1012.0 - 0.0 - - - - - - -
17/07:30pm 26.4 WNW 7 7 1011.8 - 0.0 - - - - - - -
17/07:00pm 26.4 NW 7 8 1011.2 - 0.0 - - - - - - -
17/06:30pm 26.7 NW 8 9 1010.8 - 0.0 - - - - - - -
17/06:00pm 26.9 WNW 9 10 1010.4 - 0.0 - - - - - - -
17/05:30pm 27.1 WNW 10 11 1009.9 - 0.0 - - - - - - -
17/05:00pm 27.6 WNW 10 12 1009.6 - 0.0 - - - - - - -
17/04:30pm 28.5 W 10 12 1009.4 - 0.0 - - - - - - -
17/04:00pm 28.8 W 9 11 1009.2 - 0.0 - - - - - - -
17/03:30pm 29.6 W 10 11 1009.1 - 0.0 - - - - - - -
17/03:00pm 29.1 W 10 12 1009.0 - 0.0 - - - - - - -
17/02:30pm 29.7 W 10 11 1009.2 - 0.0 - - - - - - -
17/02:00pm 29.6 WSW 10 12 1009.4 - 0.0 - - - - - - -
17/01:30pm 29.3 WSW 10 12 1009.7 - 0.0 - - - - - - -
17/01:00pm 29.4 WSW 11 12 1010.1 - 0.0 - - - - - - -
17/12:30pm 29.3 WSW 11 13 1010.5 - 0.0 - - - - - - -
17/12:00pm 29.1 SW 11 13 1011.0 - 0.0 - - - - - - -
17/11:30am 29.5 SW 10 12 1011.4 - 0.0 - - - - - - -
17/11:00am 29.4 WSW 11 13 1011.9 - 0.0 - - - - - - -
17/10:30am 28.9 WSW 11 12 1012.3 - 0.0 - - - - - - -
17/10:00am 28.7 WSW 10 12 1012.8 - 0.0 - - - - - - -
17/09:30am 28.4 WSW 10 12 1013.1 - 0.0 - - - - - - -
17/09:00am 28.4 SW 10 12 1013.2 - 0.0 - - - - - - -
17/08:30am 27.9 SW 10 12 1013.2 - 0.0 - - - - - - -
17/08:00am 27.6 SW 9 11 1013.1 - 0.0 - - - - - - -
17/07:30am 27.0 SW 10 13 1012.8 - 0.0 - - - - - - -
17/07:00am 26.4 SW 10 12 1012.4 - 0.0 - - - - - - -
17/06:30am 25.9 SW 11 13 1012.2 - 0.0 - - - - - - -
17/06:00am 25.5 SW 10 12 1012.0 - 0.0 - - - - - - -
17/05:30am 25.3 SW 9 11 1011.7 - 0.0 - - - - - - -
17/05:00am 25.4 SW 9 11 1011.6 - 0.0 - - - - - - -
17/04:30am 25.4 SW 9 11 1011.4 - 0.0 - - - - - - -
17/04:00am 25.3 SW 8 10 1011.2 - 0.0 - - - - - - -
17/03:30am 25.4 SW 8 10 1011.2 - 0.0 - - - - - - -
17/03:00am 25.6 SW 10 11 1011.1 - 0.0 - - - - - - -
17/02:30am 25.5 WSW 9 11 1011.1 - 0.0 - - - - - - -
17/02:00am 25.5 WSW 9 11 1011.2 - 0.0 - - - - - - -
17/01:30am 25.7 WSW 10 11 1011.3 - 0.0 - - - - - - -
17/01:00am 25.8 WSW 10 11 1011.5 - 0.0 - - - - - - -

Other Formats:

Comma delimited format used in spreadsheet applications
http://www.bom.gov.au/fwo/IDW60701/IDW60701.94102.axf

JavaScript Object Notation format (JSON) in row-major order
http://www.bom.gov.au/fwo/IDW60701/IDW60701.94102.json